This is the latest recevied weather packets stored in our database for station/object 4S6DRJ-13. If no packets are shown the sender has not sent any weather packets the latest 10 day(s).
| Time | Temp. | Humidity | Pressure | Rain* | Wind** | Luminosity | Snow |
|---|---|---|---|---|---|---|---|
| 1787919594 | 28.89° C | 82% | 1008.1 hPa | 0 mm | 1.34 m/s, 295° | 27 W/m² | - |
| 1787919534 | 28.89° C | 82% | 1008.3 hPa | 0 mm | 2.24 m/s, 247° | 27 W/m² | - |
| 1787919472 | 28.89° C | 82% | 1008.3 hPa | 0 mm | 1.34 m/s, 155° | 28 W/m² | - |
| 1787919411 | 28.89° C | 82% | 1008.1 hPa | 0 mm | 0.89 m/s, 291° | 30 W/m² | - |
| 1787919350 | 28.89° C | 81% | 1008.1 hPa | 0 mm | 2.68 m/s, 238° | 32 W/m² | - |
| 1787919289 | 28.89° C | 81% | 1008.2 hPa | 0 mm | 0.89 m/s, 261° | 34 W/m² | - |
| 1787919228 | 28.89° C | 81% | 1008.1 hPa | 0 mm | 2.68 m/s, 150° | 35 W/m² | - |
| 1787919167 | 28.89° C | 81% | 1008.2 hPa | 0 mm | 2.24 m/s, 0° | 34 W/m² | - |
| 1787919106 | 28.89° C | 81% | 1008 hPa | 0 mm | 2.24 m/s, 233° | 35 W/m² | - |
| 1787919045 | 28.89° C | 80% | 1008.1 hPa | 0 mm | 1.79 m/s, 117° | 38 W/m² | - |
| 1787918984 | 28.89° C | 80% | 1008.2 hPa | 0 mm | 1.79 m/s, 228° | 41 W/m² | - |
| 1787918923 | 28.89° C | 80% | 1008.1 hPa | 0 mm | 1.79 m/s, 90° | 46 W/m² | - |
| 1787918862 | 28.89° C | 80% | 1008.1 hPa | 0 mm | 2.24 m/s, 292° | 51 W/m² | - |
| 1787918801 | 29.44° C | 80% | 1008.2 hPa | 0 mm | 1.79 m/s, 339° | 53 W/m² | - |
| 1787918740 | 29.44° C | 80% | 1008.2 hPa | 0 mm | 1.34 m/s, 10° | 57 W/m² | - |
| 1787918679 | 29.44° C | 79% | 1008 hPa | 0 mm | 2.24 m/s, 251° | 57 W/m² | - |
| 1787918618 | 29.44° C | 79% | 1008.1 hPa | 0 mm | 0.89 m/s, 188° | 59 W/m² | - |
| 1787918557 | 29.44° C | 79% | 1008.1 hPa | 0 mm | 0.89 m/s, 227° | 62 W/m² | - |
| 1787918497 | 29.44° C | 79% | 1007.9 hPa | 0 mm | 0.45 m/s, 209° | 65 W/m² | - |
| 1787918435 | 29.44° C | 79% | 1008 hPa | 0 mm | 1.34 m/s, 261° | 71 W/m² | - |
| 1787918374 | 29.44° C | 79% | 1008.1 hPa | 0 mm | 2.24 m/s, 200° | 72 W/m² | - |
| 1787918313 | 29.44° C | 78% | 1008.1 hPa | 0 mm | 1.79 m/s, 187° | 78 W/m² | - |
| 1787918252 | 29.44° C | 78% | 1008.1 hPa | 0 mm | 2.24 m/s, 247° | 82 W/m² | - |
| 1787918191 | 29.44° C | 78% | 1008 hPa | 0 mm | 2.68 m/s, 319° | 85 W/m² | - |
| 1787918130 | 29.44° C | 79% | 1008.2 hPa | 0 mm | 1.34 m/s, 173° | 94 W/m² | - |
* Rain latest hour (hover to see other rain measurements)
** Current wind speed in m/s (hover to see current wind gust speed)